User: anonymous   Login
Location: Unspecified
(0.0000°N, 0.0000°E)
Time: 22:23:05
(UTC+00:00)
Language:

Aussat K1 - Orbit

View from above orbital plane
View from above orbital plane
View from above satellite
View from above satellite

Ground track
Ground track

The orbit data is extracted from the following two-line orbital elements,

1 15993U 85076B   15026.63380032  .00000077  00000-0  00000+0 0  8961
2 15993 014.9764 016.7544 0002951 242.6061 310.4503 00.99761092 78087
Epoch (UTC): 26 January 2015 15:12:40
Eccentricity: 0.0002951
inclination: 14.9764°
perigee height: 35917 km
apogee height: 35942 km
right ascension of ascending node: 16.7544°
argument of perigee: 242.6061°
revolutions per day: 0.99761092
mean anomaly at epoch: 310.4503°
orbit number at epoch: 7808

The dashed part of the orbit path shows where the satellite is in the earth's shadow,  

DLR